Location: Heppenheim
(49.6410°N, 8.6370°E)
Time: 15:46:10
(UTC+02:00)

ISS - Pass Details

Date: 13 May 2026
Orbit: 414 x 424 km, 51.6° (Epoch: 21 May)

Event Time Altitude Azimuth Distance (km) Brightness Sun altitude
Rises 01:44:03 0° 288° (WNW) 2,357 0.2 -21.8°
Reaches altitude 10° 01:46:09 10° 284° (WNW) 1,493 -0.9 -21.8°
Enters shadow 01:46:21 11° 284° (WNW) 1,417 -1.0 -21.8°
